ARG1341 SGAS-SABE

Flight info

Callsign ARG1341
Flight time N/A
Altitude 38000
Route ITAPE ASATI UP526 GEMSU UN785 GUA UZ129 PAGON
Aircraft B738/M-SDE2E3FGHIRWXY/LB1

Departure

Time 2026-04-15 22:59
Airport Silvio Pettirossi International Airport (SGAS)

Arrival

Time N/A
Airport Aeroparque Jorge Newbery (SABE)
Time Latitude Longitude Altitude Speed Heading
2026-04-15 22:41 -25.24182 -57.51529 301 ft 0 kts 122°
2026-04-15 22:47 -25.24175 -57.51541 301 ft 2 kts 122°
2026-04-15 22:47 -25.24167 -57.51555 301 ft 2 kts 122°
2026-04-15 22:48 -25.24159 -57.51569 301 ft 2 kts 122°
2026-04-15 22:48 -25.24154 -57.51578 301 ft 2 kts 118°
2026-04-15 22:48 -25.24151 -57.51594 301 ft 2 kts 90°
2026-04-15 22:48 -25.24153 -57.51610 301 ft 2 kts 68°
2026-04-15 22:49 -25.24161 -57.51625 301 ft 2 kts 45°
2026-04-15 22:49 -25.24173 -57.51634 301 ft 2 kts 22°
2026-04-15 22:49 -25.24180 -57.51637 301 ft 1 kts
2026-04-15 22:49 -25.24184 -57.51638 301 ft 0 kts 13°
2026-04-15 22:51 -25.24183 -57.51637 301 ft 1 kts 13°
2026-04-15 22:51 -25.24167 -57.51633 301 ft 4 kts 13°
2026-04-15 22:51 -25.24086 -57.51614 301 ft 19 kts 11°
2026-04-15 22:52 -25.24066 -57.51665 301 ft 10 kts 166°
2026-04-15 22:52 -25.24060 -57.51631 301 ft 5 kts 334°
2026-04-15 22:52 -25.24055 -57.51644 301 ft 0 kts 272°
2026-04-15 22:52 -25.24055 -57.51645 301 ft 0 kts 275°
2026-04-15 22:53 -25.24055 -57.51649 301 ft 2 kts 275°
2026-04-15 22:53 -25.24048 -57.51711 301 ft 9 kts 291°
2026-04-15 22:53 -25.23989 -57.51711 301 ft 13 kts 16°
2026-04-15 22:53 -25.23887 -57.51678 301 ft 18 kts 15°
2026-04-15 22:54 -25.23768 -57.51643 301 ft 19 kts 14°
2026-04-15 22:54 -25.23634 -57.51610 301 ft 21 kts 12°
2026-04-15 22:54 -25.23488 -57.51575 301 ft 22 kts 12°
2026-04-15 22:54 -25.23331 -57.51539 301 ft 24 kts 12°
2026-04-15 22:55 -25.23169 -57.51500 301 ft 23 kts 13°
2026-04-15 22:55 -25.23023 -57.51465 301 ft 22 kts 11°
2026-04-15 22:55 -25.22876 -57.51432 301 ft 21 kts 14°
2026-04-15 22:55 -25.22731 -57.51392 301 ft 22 kts 12°
2026-04-15 22:56 -25.22589 -57.51367 301 ft 17 kts 348°
2026-04-15 22:56 -25.22544 -57.51447 301 ft 12 kts 285°
2026-04-15 22:56 -25.22529 -57.51536 301 ft 9 kts 246°
2026-04-15 22:56 -25.22567 -57.51499 301 ft 11 kts 73°
2026-04-15 22:57 -25.22531 -57.51502 301 ft 7 kts 294°
2026-04-15 22:57 -25.22525 -57.51545 301 ft 4 kts 245°
2026-04-15 22:57 -25.22548 -57.51563 301 ft 4 kts 192°
2026-04-15 22:57 -25.22554 -57.51564 301 ft 0 kts 192°
2026-04-15 22:58 -25.22560 -57.51565 301 ft 2 kts 192°
2026-04-15 22:58 -25.22575 -57.51569 301 ft 4 kts 192°
2026-04-15 22:58 -25.22700 -57.51600 301 ft 44 kts 193°
2026-04-15 22:58 -25.23296 -57.51743 301 ft 128 kts 192°
2026-04-15 22:59 -25.24352 -57.52009 532 ft 170 kts 193°
2026-04-15 22:59 -25.25470 -57.52297 1416 ft 166 kts 194°
2026-04-15 22:59 -25.26565 -57.52581 2211 ft 169 kts 193°
2026-04-15 22:59 -25.27799 -57.52860 2689 ft 197 kts 192°
2026-04-15 23:00 -25.29201 -57.53186 3269 ft 223 kts 193°
2026-04-15 23:00 -25.30787 -57.53569 3859 ft 248 kts 193°
2026-04-15 23:00 -25.32545 -57.53997 4698 ft 271 kts 193°
2026-04-15 23:00 -25.34422 -57.54439 5798 ft 281 kts 188°
2026-04-15 23:01 -25.36353 -57.54223 6909 ft 288 kts 157°
2026-04-15 23:01 -25.38025 -57.53066 8132 ft 289 kts 139°
2026-04-15 23:01 -25.39486 -57.51553 9216 ft 294 kts 133°
2026-04-15 23:01 -25.40905 -57.49926 10290 ft 300 kts 132°
2026-04-15 23:02 -25.42406 -57.48197 10781 ft 326 kts 133°
2026-04-15 23:02 -25.44201 -57.46536 11479 ft 344 kts 146°
2026-04-15 23:02 -25.46378 -57.45395 12429 ft 352 kts 160°
2026-04-15 23:02 -25.48734 -57.44593 13278 ft 361 kts 163°
2026-04-15 23:03 -25.51087 -57.43885 14119 ft 368 kts 164°
2026-04-15 23:03 -25.53428 -57.43187 14908 ft 375 kts 164°
2026-04-15 23:03 -25.55956 -57.42429 15720 ft 382 kts 164°
2026-04-15 23:03 -25.58605 -57.42050 16456 ft 391 kts 185°
2026-04-15 23:04 -25.61239 -57.42754 17331 ft 392 kts 200°
2026-04-15 23:04 -25.63910 -57.43550 18045 ft 401 kts 195°
2026-04-15 23:04 -25.66632 -57.44257 18807 ft 406 kts 195°
2026-04-15 23:04 -25.69401 -57.44937 19533 ft 412 kts 194°
2026-04-15 23:05 -25.72220 -57.45584 20250 ft 417 kts 194°
2026-04-15 23:05 -25.75087 -57.46222 20953 ft 423 kts 194°
2026-04-15 23:05 -25.77972 -57.46856 21635 ft 427 kts 195°
2026-04-15 23:05 -25.80921 -57.47497 22300 ft 432 kts 195°
2026-04-15 23:06 -25.83903 -57.48141 22965 ft 436 kts 195°
2026-04-15 23:06 -25.86889 -57.48783 23604 ft 440 kts 195°
2026-04-15 23:06 -25.89906 -57.49429 24235 ft 444 kts 196°
2026-04-15 23:06 -25.92942 -57.50079 24854 ft 448 kts 196°
2026-04-15 23:07 -25.96005 -57.50733 25440 ft 451 kts 197°
2026-04-15 23:07 -25.99096 -57.51393 26034 ft 455 kts 197°
2026-04-15 23:07 -26.02205 -57.52057 26622 ft 457 kts 197°
2026-04-15 23:07 -26.05367 -57.52647 27174 ft 463 kts 194°
2026-04-15 23:08 -26.08594 -57.52955 27732 ft 470 kts 189°
2026-04-15 23:08 -26.11859 -57.53104 28246 ft 474 kts 188°
2026-04-15 23:08 -26.15150 -57.53214 28768 ft 477 kts 188°
2026-04-15 23:08 -26.18450 -57.53302 29335 ft 477 kts 188°
2026-04-15 23:09 -26.21748 -57.53374 29987 ft 476 kts 188°
2026-04-15 23:09 -26.25037 -57.53434 30671 ft 473 kts 189°
2026-04-15 23:09 -26.28311 -57.53487 31351 ft 469 kts 189°
2026-04-15 23:09 -26.31541 -57.53534 32063 ft 465 kts 190°
2026-04-15 23:10 -26.34767 -57.53577 32705 ft 462 kts 190°
2026-04-15 23:10 -26.37943 -57.53617 33423 ft 457 kts 191°
2026-04-15 23:10 -26.41096 -57.53655 34086 ft 452 kts 191°
2026-04-15 23:10 -26.44211 -57.53692 34658 ft 450 kts 191°
2026-04-15 23:11 -26.47321 -57.53730 35187 ft 449 kts 191°
2026-04-15 23:11 -26.50457 -57.53768 35720 ft 447 kts 191°
2026-04-15 23:11 -26.53556 -57.53804 36196 ft 447 kts 191°
2026-04-15 23:11 -26.56674 -57.53841 36648 ft 447 kts 191°
2026-04-15 23:12 -26.59770 -57.53876 37104 ft 446 kts 191°
2026-04-15 23:12 -26.62884 -57.53912 37516 ft 446 kts 191°
2026-04-15 23:12 -26.65951 -57.53947 37848 ft 447 kts 191°
2026-04-15 23:12 -26.69077 -57.53986 37859 ft 455 kts 191°
2026-04-15 23:13 -26.75481 -57.54063 37830 ft 463 kts 191°
2026-04-15 23:13 -26.81913 -57.54132 37830 ft 468 kts 191°
2026-04-15 23:14 -26.88433 -57.54239 37823 ft 473 kts 192°
2026-04-15 23:14 -26.94977 -57.54428 37822 ft 469 kts 191°
2026-04-15 23:15 -27.01482 -57.54620 37823 ft 468 kts 190°
2026-04-15 23:15 -27.07986 -57.54811 37824 ft 468 kts 190°
2026-04-15 23:16 -27.10944 -57.54899 37823 ft 471 kts 190°